Year,Month,Day,Hour,Minute,Value (Times are PST for temperature in C)
2016,08,12,00,00,22.30
2016,08,12,00,01,22.30
2016,08,12,00,02,22.30
2016,08,12,00,03,22.30
2016,08,12,00,04,22.30
2016,08,12,00,05,22.30
2016,08,12,00,06,22.30
2016,08,12,00,07,22.30
2016,08,12,00,08,22.30
2016,08,12,00,09,22.30
2016,08,12,00,10,22.30
2016,08,12,00,11,22.30
2016,08,12,00,12,22.30
2016,08,12,00,13,22.30
2016,08,12,00,14,22.30
2016,08,12,00,15,22.30
2016,08,12,00,16,22.30
2016,08,12,00,17,22.20
2016,08,12,00,18,22.20
2016,08,12,00,19,22.20
2016,08,12,00,20,22.20
2016,08,12,00,21,22.20
2016,08,12,00,22,22.20
2016,08,12,00,23,22.20
2016,08,12,00,24,22.20
2016,08,12,00,25,22.10
2016,08,12,00,26,22.10
2016,08,12,00,27,22.10
2016,08,12,00,28,22.10
2016,08,12,00,29,22.10
2016,08,12,00,30,22.10
2016,08,12,00,31,22.00
2016,08,12,00,32,22.00
2016,08,12,00,33,22.00
2016,08,12,00,34,21.90
2016,08,12,00,35,21.90
2016,08,12,00,36,21.90
2016,08,12,00,37,21.90
2016,08,12,00,38,21.90
2016,08,12,00,39,21.90
2016,08,12,00,40,21.80
2016,08,12,00,41,21.80
2016,08,12,00,42,21.80
2016,08,12,00,43,21.80
2016,08,12,00,44,21.80
2016,08,12,00,45,21.80
2016,08,12,00,46,21.80
2016,08,12,00,47,21.80
2016,08,12,00,48,21.80
2016,08,12,00,49,21.80
2016,08,12,00,50,21.70
2016,08,12,00,51,21.70
2016,08,12,00,52,21.70
2016,08,12,00,53,21.70
2016,08,12,00,54,21.70
2016,08,12,00,55,21.70
2016,08,12,00,56,21.70
2016,08,12,00,57,21.70
2016,08,12,00,58,21.70
2016,08,12,00,59,21.70
2016,08,12,01,00,21.60
2016,08,12,01,01,21.60
2016,08,12,01,02,21.60
2016,08,12,01,03,21.60
2016,08,12,01,04,21.60
2016,08,12,01,05,21.60
2016,08,12,01,06,21.50
2016,08,12,01,07,21.50
2016,08,12,01,08,21.40
2016,08,12,01,09,21.40
2016,08,12,01,10,21.40
2016,08,12,01,11,21.40
2016,08,12,01,12,21.40
2016,08,12,01,13,21.40
2016,08,12,01,14,21.40
2016,08,12,01,15,21.40
2016,08,12,01,16,21.30
2016,08,12,01,17,21.30
2016,08,12,01,18,21.30
2016,08,12,01,19,21.30
2016,08,12,01,20,21.30
2016,08,12,01,21,21.30
2016,08,12,01,22,21.30
2016,08,12,01,23,21.30
2016,08,12,01,24,21.30
2016,08,12,01,25,21.30
2016,08,12,01,26,21.30
2016,08,12,01,27,21.20
2016,08,12,01,28,21.20
2016,08,12,01,29,21.20
2016,08,12,01,30,21.20
2016,08,12,01,31,21.20
2016,08,12,01,32,21.20
2016,08,12,01,33,21.10
2016,08,12,01,34,21.10
2016,08,12,01,35,21.10
2016,08,12,01,36,21.10
2016,08,12,01,37,21.10
2016,08,12,01,38,21.10
2016,08,12,01,39,21.10
2016,08,12,01,40,21.10
2016,08,12,01,41,21.10
2016,08,12,01,42,21.10
2016,08,12,01,43,21.20
2016,08,12,01,44,21.20
2016,08,12,01,45,21.20
2016,08,12,01,46,21.20
2016,08,12,01,47,21.20
2016,08,12,01,48,21.20
2016,08,12,01,49,21.20
2016,08,12,01,50,21.20
2016,08,12,01,51,21.30
2016,08,12,01,52,21.30
2016,08,12,01,53,21.30
2016,08,12,01,54,21.30
2016,08,12,01,55,21.30
2016,08,12,01,56,21.30
2016,08,12,01,57,21.30
2016,08,12,01,58,21.30
2016,08,12,01,59,21.30
2016,08,12,02,00,21.20
2016,08,12,02,01,21.20
2016,08,12,02,02,21.20
2016,08,12,02,03,21.20
2016,08,12,02,04,21.20
2016,08,12,02,05,21.20
2016,08,12,02,06,21.20
2016,08,12,02,07,21.20
2016,08,12,02,08,21.20
2016,08,12,02,09,21.20
2016,08,12,02,10,21.20
2016,08,12,02,11,21.20
2016,08,12,02,12,21.10
2016,08,12,02,13,21.10
2016,08,12,02,14,21.10
2016,08,12,02,15,21.10
2016,08,12,02,16,21.10
2016,08,12,02,17,21.10
2016,08,12,02,18,21.00
2016,08,12,02,19,21.00
2016,08,12,02,20,21.00
2016,08,12,02,21,21.00
2016,08,12,02,22,20.90
2016,08,12,02,23,20.90
2016,08,12,02,24,20.90
2016,08,12,02,25,20.90
2016,08,12,02,26,20.90
2016,08,12,02,27,20.90
2016,08,12,02,28,20.90
2016,08,12,02,29,20.90
2016,08,12,02,30,20.90
2016,08,12,02,31,20.90
2016,08,12,02,32,20.90
2016,08,12,02,33,20.80
2016,08,12,02,34,20.80
2016,08,12,02,35,20.80
2016,08,12,02,36,20.80
2016,08,12,02,37,20.80
2016,08,12,02,38,20.80
2016,08,12,02,39,20.80
2016,08,12,02,40,20.80
2016,08,12,02,41,20.80
2016,08,12,02,42,20.80
2016,08,12,02,43,20.80
2016,08,12,02,44,20.80
2016,08,12,02,45,20.80
2016,08,12,02,46,20.80
2016,08,12,02,47,20.80
2016,08,12,02,48,20.70
2016,08,12,02,49,20.70
2016,08,12,02,50,20.70
2016,08,12,02,51,20.70
2016,08,12,02,52,20.70
2016,08,12,02,53,20.70
2016,08,12,02,54,20.70
2016,08,12,02,55,20.70
2016,08,12,02,56,20.70
2016,08,12,02,57,20.70
2016,08,12,02,58,20.60
2016,08,12,02,59,20.60
2016,08,12,03,00,20.60
2016,08,12,03,01,20.60
2016,08,12,03,02,20.60
2016,08,12,03,03,20.60
2016,08,12,03,04,20.60
2016,08,12,03,05,20.50
2016,08,12,03,06,20.50
2016,08,12,03,07,20.50
2016,08,12,03,08,20.50
2016,08,12,03,09,20.40
2016,08,12,03,10,20.40
2016,08,12,03,11,20.40
2016,08,12,03,12,20.30
2016,08,12,03,13,20.30
2016,08,12,03,14,20.30
2016,08,12,03,15,20.20
2016,08,12,03,16,20.20
2016,08,12,03,17,20.20
2016,08,12,03,18,20.10
2016,08,12,03,19,20.10
2016,08,12,03,20,20.10
2016,08,12,03,21,20.10
2016,08,12,03,22,20.10
2016,08,12,03,23,20.00
2016,08,12,03,24,20.00
2016,08,12,03,25,19.90
2016,08,12,03,26,19.90
2016,08,12,03,27,19.80
2016,08,12,03,28,19.70
2016,08,12,03,29,19.70
2016,08,12,03,30,19.60
2016,08,12,03,31,19.60
2016,08,12,03,32,19.50
2016,08,12,03,33,19.40
2016,08,12,03,34,19.40
2016,08,12,03,35,19.40
2016,08,12,03,36,19.30
2016,08,12,03,37,19.30
2016,08,12,03,38,19.20
2016,08,12,03,39,19.20
2016,08,12,03,40,19.10
2016,08,12,03,41,19.10
2016,08,12,03,42,19.00
2016,08,12,03,43,19.00
2016,08,12,03,44,18.90
2016,08,12,03,45,18.90
2016,08,12,03,46,18.90
2016,08,12,03,47,18.80
2016,08,12,03,48,18.80
2016,08,12,03,49,18.80
2016,08,12,03,50,18.80
2016,08,12,03,51,18.80
2016,08,12,03,52,18.80
2016,08,12,03,53,18.80
2016,08,12,03,54,18.80
2016,08,12,03,55,18.80
2016,08,12,03,56,18.80
2016,08,12,03,57,18.80
2016,08,12,03,58,18.80
2016,08,12,03,59,18.80
2016,08,12,04,00,18.80
2016,08,12,04,01,18.80
2016,08,12,04,02,18.80
2016,08,12,04,03,18.90
2016,08,12,04,04,19.00
2016,08,12,04,05,19.10
2016,08,12,04,06,19.30
2016,08,12,04,07,19.40
2016,08,12,04,08,19.50
2016,08,12,04,09,19.50
2016,08,12,04,10,19.60
2016,08,12,04,11,19.70
2016,08,12,04,12,19.80
2016,08,12,04,13,19.90
2016,08,12,04,14,19.90
2016,08,12,04,15,19.90
2016,08,12,04,16,19.90
2016,08,12,04,17,20.00
2016,08,12,04,18,19.90
2016,08,12,04,19,20.00
2016,08,12,04,20,19.90
2016,08,12,04,21,20.00
2016,08,12,04,22,20.00
2016,08,12,04,23,20.00
2016,08,12,04,24,20.00
2016,08,12,04,25,20.00
2016,08,12,04,26,20.00
2016,08,12,04,27,20.00
2016,08,12,04,28,20.00
2016,08,12,04,29,19.90
2016,08,12,04,30,19.90
2016,08,12,04,31,19.90
2016,08,12,04,32,19.90
2016,08,12,04,33,19.90
2016,08,12,04,34,19.90
2016,08,12,04,35,19.90
2016,08,12,04,36,19.90
2016,08,12,04,37,19.90
2016,08,12,04,38,19.80
2016,08,12,04,39,19.80
2016,08,12,04,40,19.80
2016,08,12,04,41,19.80
2016,08,12,04,42,19.80
2016,08,12,04,43,19.80
2016,08,12,04,44,19.80
2016,08,12,04,45,19.80
2016,08,12,04,46,19.80
2016,08,12,04,47,19.80
2016,08,12,04,48,19.80
2016,08,12,04,49,19.80
2016,08,12,04,50,19.80
2016,08,12,04,51,19.80
2016,08,12,04,52,19.80
2016,08,12,04,53,19.80
2016,08,12,04,54,19.80
2016,08,12,04,55,19.80
2016,08,12,04,56,19.80
2016,08,12,04,57,19.80
2016,08,12,04,58,19.80
2016,08,12,04,59,19.80
2016,08,12,05,00,19.80
2016,08,12,05,01,19.80
2016,08,12,05,02,19.70
2016,08,12,05,03,19.80
2016,08,12,05,04,19.70
2016,08,12,05,05,19.70
2016,08,12,05,06,19.70
2016,08,12,05,07,19.70
2016,08,12,05,08,19.70
2016,08,12,05,09,19.70
2016,08,12,05,10,19.70
2016,08,12,05,11,19.70
2016,08,12,05,12,19.80
2016,08,12,05,13,19.80
2016,08,12,05,14,19.80
2016,08,12,05,15,19.80
2016,08,12,05,16,19.80
2016,08,12,05,17,19.90
2016,08,12,05,18,19.90
2016,08,12,05,19,19.90
2016,08,12,05,20,20.00
2016,08,12,05,21,20.00
2016,08,12,05,22,20.00
2016,08,12,05,23,20.10
2016,08,12,05,24,20.10
2016,08,12,05,25,20.10
2016,08,12,05,26,20.10
2016,08,12,05,27,20.20
2016,08,12,05,28,20.20
2016,08,12,05,29,20.20
2016,08,12,05,30,20.20
2016,08,12,05,31,20.20
2016,08,12,05,32,20.20
2016,08,12,05,33,20.20
2016,08,12,05,34,20.20
2016,08,12,05,35,20.20
2016,08,12,05,36,20.20
2016,08,12,05,37,20.20
2016,08,12,05,38,20.20
2016,08,12,05,39,20.20
2016,08,12,05,40,20.20
2016,08,12,05,41,20.20
2016,08,12,05,42,20.10
2016,08,12,05,43,20.10
2016,08,12,05,44,20.10
2016,08,12,05,45,20.10
2016,08,12,05,46,20.10
2016,08,12,05,47,20.10
2016,08,12,05,48,20.10
2016,08,12,05,49,20.10
2016,08,12,05,50,20.10
2016,08,12,05,51,20.10
2016,08,12,05,52,20.00
2016,08,12,05,53,20.00
2016,08,12,05,54,20.00
2016,08,12,05,55,20.00
2016,08,12,05,56,20.10
2016,08,12,05,57,20.10
2016,08,12,05,58,20.10
2016,08,12,05,59,20.10
2016,08,12,06,00,20.10
2016,08,12,06,01,20.10
2016,08,12,06,02,20.10
2016,08,12,06,03,20.10
2016,08,12,06,04,20.10
2016,08,12,06,05,20.10
2016,08,12,06,06,20.00
2016,08,12,06,07,20.00
2016,08,12,06,08,20.00
2016,08,12,06,09,20.00
2016,08,12,06,10,19.90
2016,08,12,06,11,19.90
2016,08,12,06,12,19.90
2016,08,12,06,13,19.90
2016,08,12,06,14,19.90
2016,08,12,06,15,19.90
2016,08,12,06,16,19.80
2016,08,12,06,17,19.80
2016,08,12,06,18,19.80
2016,08,12,06,19,19.80
2016,08,12,06,20,19.80
2016,08,12,06,21,19.90
2016,08,12,06,22,19.90
2016,08,12,06,23,19.90
2016,08,12,06,24,19.90
2016,08,12,06,25,19.90
2016,08,12,06,26,19.90
2016,08,12,06,27,19.90
2016,08,12,06,28,20.00
2016,08,12,06,29,20.00
2016,08,12,06,30,20.00
2016,08,12,06,31,20.10
2016,08,12,06,32,20.10
2016,08,12,06,33,20.10
2016,08,12,06,34,20.10
2016,08,12,06,35,20.10
2016,08,12,06,36,20.10
2016,08,12,06,37,20.10
2016,08,12,06,38,20.20
2016,08,12,06,39,20.20
2016,08,12,06,40,20.20
2016,08,12,06,41,20.20
2016,08,12,06,42,20.20
2016,08,12,06,43,20.20
2016,08,12,06,44,20.30
2016,08,12,06,45,20.30
2016,08,12,06,46,20.30
2016,08,12,06,47,20.40
2016,08,12,06,48,20.40
2016,08,12,06,49,20.40
2016,08,12,06,50,20.50
2016,08,12,06,51,20.50
2016,08,12,06,52,20.60
2016,08,12,06,53,20.60
2016,08,12,06,54,20.60
2016,08,12,06,55,20.70
2016,08,12,06,56,20.70
2016,08,12,06,57,20.70
2016,08,12,06,58,20.80
2016,08,12,06,59,20.80
2016,08,12,07,00,20.80
2016,08,12,07,01,20.90
2016,08,12,07,02,20.90
2016,08,12,07,03,21.00
2016,08,12,07,04,21.00
2016,08,12,07,05,21.10
2016,08,12,07,06,21.10
2016,08,12,07,07,21.10
2016,08,12,07,08,21.10
2016,08,12,07,09,21.20
2016,08,12,07,10,21.20
2016,08,12,07,11,21.20
2016,08,12,07,12,21.20
2016,08,12,07,13,21.20
2016,08,12,07,14,21.20
2016,08,12,07,15,21.30
2016,08,12,07,16,21.30
2016,08,12,07,17,21.30
2016,08,12,07,18,21.30
2016,08,12,07,19,21.20
2016,08,12,07,20,21.20
2016,08,12,07,21,21.20
2016,08,12,07,22,21.20
2016,08,12,07,23,21.10
2016,08,12,07,24,21.10
2016,08,12,07,25,21.10
2016,08,12,07,26,21.10
2016,08,12,07,27,21.10
2016,08,12,07,28,21.10
2016,08,12,07,29,21.20
2016,08,12,07,30,21.20
2016,08,12,07,31,21.30
2016,08,12,07,32,21.30
2016,08,12,07,33,21.30
2016,08,12,07,34,21.30
2016,08,12,07,35,21.30
2016,08,12,07,36,21.30
2016,08,12,07,37,21.30
2016,08,12,07,38,21.30
2016,08,12,07,39,21.30
2016,08,12,07,40,21.30
2016,08,12,07,41,21.30
2016,08,12,07,42,21.30
2016,08,12,07,43,21.30
2016,08,12,07,44,21.30
2016,08,12,07,45,21.30
2016,08,12,07,46,21.30
2016,08,12,07,47,21.30
2016,08,12,07,48,21.30
2016,08,12,07,49,21.30
2016,08,12,07,50,21.30
2016,08,12,07,51,21.30
2016,08,12,07,52,21.40
2016,08,12,07,53,21.40
2016,08,12,07,54,21.40
2016,08,12,07,55,21.40
2016,08,12,07,56,21.40
2016,08,12,07,57,21.40
2016,08,12,07,58,21.40
2016,08,12,07,59,21.40
2016,08,12,08,00,21.50
2016,08,12,08,01,21.50
2016,08,12,08,02,21.60
2016,08,12,08,03,21.70
2016,08,12,08,04,21.70
2016,08,12,08,05,21.70
2016,08,12,08,06,21.70
2016,08,12,08,07,21.70
2016,08,12,08,08,21.70
2016,08,12,08,09,21.80
2016,08,12,08,10,21.80
2016,08,12,08,11,21.80
2016,08,12,08,12,21.80
2016,08,12,08,13,21.90
2016,08,12,08,14,22.00
2016,08,12,08,15,22.00
2016,08,12,08,16,22.10
2016,08,12,08,17,22.10
2016,08,12,08,18,22.20
2016,08,12,08,19,22.20
2016,08,12,08,20,22.20
2016,08,12,08,21,22.30
2016,08,12,08,22,22.30
2016,08,12,08,23,22.30
2016,08,12,08,24,22.40
2016,08,12,08,25,22.40
2016,08,12,08,26,22.50
2016,08,12,08,27,22.50
2016,08,12,08,28,22.50
2016,08,12,08,29,22.40
2016,08,12,08,30,22.40
2016,08,12,08,31,22.50
2016,08,12,08,32,22.50
2016,08,12,08,33,22.60
2016,08,12,08,34,22.70
2016,08,12,08,35,22.80
2016,08,12,08,36,22.80
2016,08,12,08,37,22.90
2016,08,12,08,38,22.90
2016,08,12,08,39,22.90
2016,08,12,08,40,22.90
2016,08,12,08,41,22.90
2016,08,12,08,42,22.90
2016,08,12,08,43,22.90
2016,08,12,08,44,22.90
2016,08,12,08,45,22.90
2016,08,12,08,46,22.90
2016,08,12,08,47,22.90
2016,08,12,08,48,23.00
2016,08,12,08,49,23.10
2016,08,12,08,50,23.10
2016,08,12,08,51,23.10
2016,08,12,08,52,23.10
2016,08,12,08,53,23.10
2016,08,12,08,54,23.10
2016,08,12,08,55,23.10
2016,08,12,08,56,23.10
2016,08,12,08,57,23.20
2016,08,12,08,58,23.20
2016,08,12,08,59,23.30
2016,08,12,09,00,23.30
2016,08,12,09,01,23.40
2016,08,12,09,02,23.40
2016,08,12,09,03,23.40
2016,08,12,09,04,23.50
2016,08,12,09,05,23.50
2016,08,12,09,06,23.60
2016,08,12,09,07,23.60
2016,08,12,09,08,23.70
2016,08,12,09,09,23.80
2016,08,12,09,10,23.90
2016,08,12,09,11,23.90
2016,08,12,09,12,24.00
2016,08,12,09,13,24.10
2016,08,12,09,14,24.20
2016,08,12,09,15,24.20
2016,08,12,09,16,24.20
2016,08,12,09,17,24.10
2016,08,12,09,18,24.10
2016,08,12,09,19,24.10
2016,08,12,09,20,24.10
2016,08,12,09,21,24.10
2016,08,12,09,22,24.10
2016,08,12,09,23,24.00
2016,08,12,09,24,24.00
2016,08,12,09,25,24.00
2016,08,12,09,26,24.00
2016,08,12,09,27,24.00
2016,08,12,09,28,24.00
2016,08,12,09,29,23.90
2016,08,12,09,30,24.00
2016,08,12,09,31,24.00
2016,08,12,09,32,24.10
2016,08,12,09,33,24.10
2016,08,12,09,34,24.10
2016,08,12,09,35,24.20
2016,08,12,09,36,24.20
2016,08,12,09,37,24.30
2016,08,12,09,38,24.30
2016,08,12,09,39,24.30
2016,08,12,09,40,24.30
2016,08,12,09,41,24.40
2016,08,12,09,42,24.30
2016,08,12,09,43,24.30
2016,08,12,09,44,24.30
2016,08,12,09,45,24.20
2016,08,12,09,46,24.20
2016,08,12,09,47,24.20
2016,08,12,09,48,24.30
2016,08,12,09,49,24.30
2016,08,12,09,50,24.40
2016,08,12,09,51,24.50
2016,08,12,09,52,24.50
2016,08,12,09,53,24.60
2016,08,12,09,54,24.60
2016,08,12,09,55,24.60
2016,08,12,09,56,24.70
2016,08,12,09,57,24.70
2016,08,12,09,58,24.80
2016,08,12,09,59,24.80
2016,08,12,10,00,24.90
2016,08,12,10,01,24.90
2016,08,12,10,02,25.00
2016,08,12,10,03,25.00
2016,08,12,10,04,24.90
2016,08,12,10,05,24.90
2016,08,12,10,06,24.80
2016,08,12,10,07,24.80
2016,08,12,10,08,24.70
2016,08,12,10,09,24.70
2016,08,12,10,10,24.70
2016,08,12,10,11,24.70
2016,08,12,10,12,24.70
2016,08,12,10,13,24.70
2016,08,12,10,14,24.70
2016,08,12,10,15,24.70
2016,08,12,10,16,24.70
2016,08,12,10,17,24.70
2016,08,12,10,18,24.70
2016,08,12,10,19,24.70
2016,08,12,10,20,24.70
2016,08,12,10,21,24.70
2016,08,12,10,22,24.80
2016,08,12,10,23,24.80
2016,08,12,10,24,24.80
2016,08,12,10,25,24.80
2016,08,12,10,26,24.80
2016,08,12,10,27,24.80
2016,08,12,10,28,24.80
2016,08,12,10,29,24.80
2016,08,12,10,30,24.70
2016,08,12,10,31,24.70
2016,08,12,10,32,24.70
2016,08,12,10,33,24.70
2016,08,12,10,34,24.70
2016,08,12,10,35,24.70
2016,08,12,10,36,24.70
2016,08,12,10,37,24.80
2016,08,12,10,38,24.80
2016,08,12,10,39,24.80
2016,08,12,10,40,24.80
2016,08,12,10,41,24.80
2016,08,12,10,42,24.80
2016,08,12,10,43,24.70
2016,08,12,10,44,24.80
2016,08,12,10,45,24.80
2016,08,12,10,46,24.80
2016,08,12,10,47,24.80
2016,08,12,10,48,24.80
2016,08,12,10,49,24.80
2016,08,12,10,50,24.90
2016,08,12,10,51,24.90
2016,08,12,10,52,25.00
2016,08,12,10,53,25.00
2016,08,12,10,54,25.10
2016,08,12,10,55,25.10
2016,08,12,10,56,25.10
2016,08,12,10,57,25.10
2016,08,12,10,58,25.10
2016,08,12,10,59,25.10
2016,08,12,11,00,25.20
2016,08,12,11,01,25.20
2016,08,12,11,02,25.20
2016,08,12,11,03,25.20
2016,08,12,11,04,25.20
2016,08,12,11,05,25.20
2016,08,12,11,06,25.20
2016,08,12,11,07,25.10
2016,08,12,11,08,25.10
2016,08,12,11,09,25.10
2016,08,12,11,10,25.20
2016,08,12,11,11,25.20
2016,08,12,11,12,25.30
2016,08,12,11,13,25.30
2016,08,12,11,14,25.40
2016,08,12,11,15,25.40
2016,08,12,11,16,25.40
2016,08,12,11,17,25.40
2016,08,12,11,18,25.40
2016,08,12,11,19,25.50
2016,08,12,11,20,25.50
2016,08,12,11,21,25.50
2016,08,12,11,22,25.50
2016,08,12,11,23,25.50
2016,08,12,11,24,25.50
2016,08,12,11,25,25.60
2016,08,12,11,26,25.60
2016,08,12,11,27,25.70
2016,08,12,11,28,25.70
2016,08,12,11,29,25.80
2016,08,12,11,30,25.80
2016,08,12,11,31,25.80
2016,08,12,11,32,25.80
2016,08,12,11,33,25.80
2016,08,12,11,34,25.90
2016,08,12,11,35,25.90
2016,08,12,11,36,25.90
2016,08,12,11,37,25.90
2016,08,12,11,38,25.90
2016,08,12,11,39,25.90
2016,08,12,11,40,25.90
2016,08,12,11,41,25.90
2016,08,12,11,42,25.90
2016,08,12,11,43,25.90
2016,08,12,11,44,25.90
2016,08,12,11,45,25.90
2016,08,12,11,46,25.90
2016,08,12,11,47,25.90
2016,08,12,11,48,25.80
2016,08,12,11,49,25.80
2016,08,12,11,50,25.70
2016,08,12,11,51,25.70
2016,08,12,11,52,25.70
2016,08,12,11,53,25.80
2016,08,12,11,54,25.80
2016,08,12,11,55,25.90
2016,08,12,11,56,25.90
2016,08,12,11,57,25.90
2016,08,12,11,58,26.00
2016,08,12,11,59,26.10
2016,08,12,12,00,26.20
2016,08,12,12,01,26.10
2016,08,12,12,02,26.10
2016,08,12,12,03,26.10
2016,08,12,12,04,26.10
2016,08,12,12,05,26.20
2016,08,12,12,06,26.10
2016,08,12,12,07,26.10
2016,08,12,12,08,26.10
2016,08,12,12,09,26.10
2016,08,12,12,10,26.10
2016,08,12,12,11,26.10
2016,08,12,12,12,26.20
2016,08,12,12,13,26.10
2016,08,12,12,14,26.10
2016,08,12,12,15,26.10
2016,08,12,12,16,26.10
2016,08,12,12,17,26.10
2016,08,12,12,18,26.10
2016,08,12,12,19,26.10
2016,08,12,12,20,26.10
2016,08,12,12,21,26.10
2016,08,12,12,22,26.10
2016,08,12,12,23,26.00
2016,08,12,12,24,26.00
2016,08,12,12,25,25.90
2016,08,12,12,26,26.00
2016,08,12,12,27,26.00
2016,08,12,12,28,26.10
2016,08,12,12,29,26.10
2016,08,12,12,30,26.00
2016,08,12,12,31,26.00
2016,08,12,12,32,25.90
2016,08,12,12,33,25.90
2016,08,12,12,34,25.90
2016,08,12,12,35,25.90
2016,08,12,12,36,25.90
2016,08,12,12,37,25.90
2016,08,12,12,38,25.90
2016,08,12,12,39,25.90
2016,08,12,12,40,26.00
2016,08,12,12,41,26.10
2016,08,12,12,42,26.10
2016,08,12,12,43,26.20
2016,08,12,12,44,26.30
2016,08,12,12,45,26.40
2016,08,12,12,46,26.50
2016,08,12,12,47,26.50
2016,08,12,12,48,26.60
2016,08,12,12,49,26.60
2016,08,12,12,50,26.70
2016,08,12,12,51,26.60
2016,08,12,12,52,26.60
2016,08,12,12,53,26.60
2016,08,12,12,54,26.60
2016,08,12,12,55,26.70
2016,08,12,12,56,26.70
2016,08,12,12,57,26.70
2016,08,12,12,58,26.80
2016,08,12,12,59,26.80
2016,08,12,13,00,26.80
2016,08,12,13,01,26.80
2016,08,12,13,02,26.90
2016,08,12,13,03,26.90
2016,08,12,13,04,26.90
2016,08,12,13,05,27.00
2016,08,12,13,06,27.10
2016,08,12,13,07,27.10
2016,08,12,13,08,27.20
2016,08,12,13,09,27.20
2016,08,12,13,10,27.30
2016,08,12,13,11,27.30
2016,08,12,13,12,27.30
2016,08,12,13,13,27.30
2016,08,12,13,14,27.30
2016,08,12,13,15,27.40
2016,08,12,13,16,27.40
2016,08,12,13,17,27.40
2016,08,12,13,18,27.30
2016,08,12,13,19,27.30
2016,08,12,13,20,27.20
2016,08,12,13,21,27.20
2016,08,12,13,22,27.20
2016,08,12,13,23,27.20
2016,08,12,13,24,27.30
2016,08,12,13,25,27.30
2016,08,12,13,26,27.40
2016,08,12,13,27,27.40
2016,08,12,13,28,27.50
2016,08,12,13,29,27.50
2016,08,12,13,30,27.50
2016,08,12,13,31,27.50
2016,08,12,13,32,27.50
2016,08,12,13,33,27.50
2016,08,12,13,34,27.40
2016,08,12,13,35,27.40
2016,08,12,13,36,27.40
2016,08,12,13,37,27.40
2016,08,12,13,38,27.40
2016,08,12,13,39,27.50
2016,08,12,13,40,27.50
2016,08,12,13,41,27.60
2016,08,12,13,42,27.70
2016,08,12,13,43,27.70
2016,08,12,13,44,27.70
2016,08,12,13,45,27.70
2016,08,12,13,46,27.70
2016,08,12,13,47,27.70
2016,08,12,13,48,27.70
2016,08,12,13,49,27.70
2016,08,12,13,50,27.70
2016,08,12,13,51,27.70
2016,08,12,13,52,27.60
2016,08,12,13,53,27.60
2016,08,12,13,54,27.60
2016,08,12,13,55,27.60
2016,08,12,13,56,27.60
2016,08,12,13,57,27.60
2016,08,12,13,58,27.60
2016,08,12,13,59,27.60
2016,08,12,14,00,27.70
2016,08,12,14,01,27.70
2016,08,12,14,02,27.70
2016,08,12,14,03,27.80
2016,08,12,14,04,27.80
2016,08,12,14,05,27.80
2016,08,12,14,06,27.90
2016,08,12,14,07,27.90
2016,08,12,14,08,27.90
2016,08,12,14,09,28.00
2016,08,12,14,10,28.00
2016,08,12,14,11,28.00
2016,08,12,14,12,28.10
2016,08,12,14,13,28.10
2016,08,12,14,14,28.20
2016,08,12,14,15,28.30
2016,08,12,14,16,28.30
2016,08,12,14,17,28.30
2016,08,12,14,18,28.30
2016,08,12,14,19,28.30
2016,08,12,14,20,28.30
2016,08,12,14,21,28.30
2016,08,12,14,22,28.30
2016,08,12,14,23,28.40
2016,08,12,14,24,28.40
2016,08,12,14,25,28.40
2016,08,12,14,26,28.40
2016,08,12,14,27,28.40
2016,08,12,14,28,28.40
2016,08,12,14,29,28.40
2016,08,12,14,30,28.40
2016,08,12,14,31,28.50
2016,08,12,14,32,28.60
2016,08,12,14,33,28.60
2016,08,12,14,34,28.70
2016,08,12,14,35,28.80
2016,08,12,14,36,28.90
2016,08,12,14,37,29.00
2016,08,12,14,38,29.20
2016,08,12,14,39,29.20
2016,08,12,14,40,29.30
2016,08,12,14,41,29.40
2016,08,12,14,42,29.40
2016,08,12,14,43,29.40
2016,08,12,14,44,29.30
2016,08,12,14,45,29.20
2016,08,12,14,46,29.10
2016,08,12,14,47,29.10
2016,08,12,14,48,29.00
2016,08,12,14,49,29.00
2016,08,12,14,50,29.00
2016,08,12,14,51,29.00
2016,08,12,14,52,29.00
2016,08,12,14,53,29.10
2016,08,12,14,54,29.10
2016,08,12,14,55,29.10
2016,08,12,14,56,29.10
2016,08,12,14,57,29.10
2016,08,12,14,58,29.10
2016,08,12,14,59,29.20
2016,08,12,15,00,29.20
2016,08,12,15,01,29.30
2016,08,12,15,02,29.30
2016,08,12,15,03,29.40
2016,08,12,15,04,29.50
2016,08,12,15,05,29.60
2016,08,12,15,06,29.60
2016,08,12,15,07,29.70
2016,08,12,15,08,29.70
2016,08,12,15,09,29.80
2016,08,12,15,10,29.80
2016,08,12,15,11,29.90
2016,08,12,15,12,30.00
2016,08,12,15,13,30.00
2016,08,12,15,14,30.10
2016,08,12,15,15,30.10
2016,08,12,15,16,30.20
2016,08,12,15,17,30.20
2016,08,12,15,18,30.20
2016,08,12,15,19,30.20
2016,08,12,15,20,30.10
2016,08,12,15,21,30.10
2016,08,12,15,22,30.10
2016,08,12,15,23,30.10
2016,08,12,15,24,30.10
2016,08,12,15,25,30.10
2016,08,12,15,26,30.10
2016,08,12,15,27,30.10
2016,08,12,15,28,30.10
2016,08,12,15,29,30.20
2016,08,12,15,30,30.20
2016,08,12,15,31,30.20
2016,08,12,15,32,30.20
2016,08,12,15,33,30.20
2016,08,12,15,34,30.20
2016,08,12,15,35,30.20
2016,08,12,15,36,30.20
2016,08,12,15,37,30.10
2016,08,12,15,38,30.10
2016,08,12,15,39,30.10
2016,08,12,15,40,30.00
2016,08,12,15,41,30.00
2016,08,12,15,42,30.00
2016,08,12,15,43,30.00
2016,08,12,15,44,30.10
2016,08,12,15,45,30.10
2016,08,12,15,46,30.10
2016,08,12,15,47,30.10
2016,08,12,15,48,30.10
2016,08,12,15,49,30.10
2016,08,12,15,50,30.00
2016,08,12,15,51,30.00
2016,08,12,15,52,29.90
2016,08,12,15,53,29.90
2016,08,12,15,54,29.90
2016,08,12,15,55,29.80
2016,08,12,15,56,29.70
2016,08,12,15,57,29.60
2016,08,12,15,58,29.50
2016,08,12,15,59,29.40
2016,08,12,16,00,29.30
2016,08,12,16,01,29.30
2016,08,12,16,02,29.20
2016,08,12,16,03,29.20
2016,08,12,16,04,29.20
2016,08,12,16,05,29.20
2016,08,12,16,06,29.20
2016,08,12,16,07,29.30
2016,08,12,16,08,29.30
2016,08,12,16,09,29.30
2016,08,12,16,10,29.40
2016,08,12,16,11,29.40
2016,08,12,16,12,29.40
2016,08,12,16,13,29.50
2016,08,12,16,14,29.50
2016,08,12,16,15,29.50
2016,08,12,16,16,29.60
2016,08,12,16,17,29.70
2016,08,12,16,18,29.70
2016,08,12,16,19,29.80
2016,08,12,16,20,29.80
2016,08,12,16,21,29.80
2016,08,12,16,22,29.80
2016,08,12,16,23,29.90
2016,08,12,16,24,29.90
2016,08,12,16,25,30.00
2016,08,12,16,26,30.00
2016,08,12,16,27,30.10
2016,08,12,16,28,30.10
2016,08,12,16,29,30.10
2016,08,12,16,30,30.10
2016,08,12,16,31,30.10
2016,08,12,16,32,30.10
2016,08,12,16,33,30.10
2016,08,12,16,34,30.10
2016,08,12,16,35,30.10
2016,08,12,16,36,30.00
2016,08,12,16,37,30.10
2016,08,12,16,38,30.10
2016,08,12,16,39,30.10
2016,08,12,16,40,30.00
2016,08,12,16,41,29.90
2016,08,12,16,42,29.90
2016,08,12,16,43,29.90
2016,08,12,16,44,30.00
2016,08,12,16,45,30.00
2016,08,12,16,46,30.00
2016,08,12,16,47,29.90
2016,08,12,16,48,29.90
2016,08,12,16,49,29.80
2016,08,12,16,50,29.80
2016,08,12,16,51,29.70
2016,08,12,16,52,29.60
2016,08,12,16,53,29.50
2016,08,12,16,54,29.50
2016,08,12,16,55,29.40
2016,08,12,16,56,29.40
2016,08,12,16,57,29.40
2016,08,12,16,58,29.50
2016,08,12,16,59,29.50
2016,08,12,17,00,29.50
2016,08,12,17,01,29.50
2016,08,12,17,02,29.60
2016,08,12,17,03,29.60
2016,08,12,17,04,29.60
2016,08,12,17,05,29.70
2016,08,12,17,06,29.70
2016,08,12,17,07,29.80
2016,08,12,17,08,29.80
2016,08,12,17,09,29.80
2016,08,12,17,10,29.80
2016,08,12,17,11,29.80
2016,08,12,17,12,29.80
2016,08,12,17,13,29.80
2016,08,12,17,14,29.90
2016,08,12,17,15,29.90
2016,08,12,17,16,29.90
2016,08,12,17,17,30.00
2016,08,12,17,18,30.00
2016,08,12,17,19,30.10